Tracking 19831 objects as of 23-Aug-2019
HD Live streaming from Space Station
objects crossing your sky now

COSMOS 1771

Track COSMOS 1771 now!
10-day predictions
COSMOS 1771 is classified as:


NORAD ID: 16917
Int'l Code: 1986-062A
Perigee: 929.6 km
Apogee: 994.7 km
Inclination: 65.0 °
Period: 104.2 minutes
Semi major axis: 7333 km
RCS: 2.6102 m2 (large)
Launch date: August 20, 1986
Source: Commonwealth of Independent States (former USSR) (CIS)
Launch site: TYURATAM MISSILE AND SPACE COMPLEX (TTMTR)
aabbcc
Your satellite tracking list
Your tracking list is empty




NASA's NSSDC Master Catalog

Two Line Element Set (TLE):
1 16917U 86062A   19234.66584443 -.00000079 +00000-0 +82374-5 0  9991
2 16917 064.9844 310.1555 0044360 014.5313 345.7010 13.82505816667463
Source of the keplerian elements: AFSPC